This is the latest recevied weather packets stored in our database for station/object K1FFK-1. If no packets are shown the sender has not sent any weather packets the latest 10 day(s).
| Time | Temp. | Humidity | Pressure | Rain* | Wind** | Luminosity | Snow |
|---|---|---|---|---|---|---|---|
| 1777411293 | 11.67° C | 53% | 1021.4 hPa | 0 mm | - | - | - |
| 1777410693 | 11.67° C | 52% | 1021.4 hPa | 0 mm | - | - | - |
| 1777410093 | 12.22° C | 52% | 1021.4 hPa | 0 mm | - | - | - |
| 1777409494 | 12.22° C | 52% | 1021.6 hPa | 0 mm | - | - | - |
| 1777408894 | 12.22° C | 53% | 1021.8 hPa | 0 mm | - | - | - |
| 1777408294 | 12.22° C | 52% | 1021.9 hPa | 0 mm | - | - | - |
| 1777407694 | 12.22° C | 51% | 1022.1 hPa | 0 mm | - | - | - |
| 1777407093 | 12.22° C | 52% | 1022.2 hPa | 0 mm | - | - | - |
| 1777406494 | 12.78° C | 51% | 1022.3 hPa | 0 mm | - | - | - |
| 1777405895 | 12.78° C | 51% | 1022.5 hPa | 0 mm | - | - | - |
| 1777405294 | 12.78° C | 51% | 1022.5 hPa | 0 mm | - | - | - |
| 1777404694 | 13.33° C | 50% | 1022.7 hPa | 0 mm | - | - | - |
| 1777404094 | 13.33° C | 50% | 1022.6 hPa | 0 mm | - | - | - |
| 1777403493 | 13.89° C | 48% | 1022.9 hPa | 0 mm | - | - | - |
| 1777402894 | 13.33° C | 48% | 1023 hPa | 0 mm | - | - | - |
| 1777402293 | 13.33° C | 48% | 1022.9 hPa | 0 mm | - | - | - |
| 1777401693 | 13.33° C | 49% | 1023.1 hPa | 0 mm | - | - | - |
| 1777401094 | 13.33° C | 47% | 1022.7 hPa | 0 mm | - | - | - |
| 1777400494 | 14.44° C | 45% | 1023 hPa | 0 mm | - | - | - |
| 1777399894 | 14.44° C | 46% | 1023.2 hPa | 0 mm | - | - | - |
| 1777399293 | 14.44° C | 45% | 1023.1 hPa | 0 mm | - | - | - |
| 1777398693 | 13.89° C | 46% | 1023 hPa | 0 mm | - | - | - |
| 1777398094 | 13.89° C | 46% | 1023.1 hPa | 0 mm | - | - | - |
| 1777397494 | 13.89° C | 47% | 1023.1 hPa | 0 mm | - | - | - |
| 1777396894 | 13.33° C | 47% | 1023.3 hPa | 0 mm | - | - | - |
* Rain latest hour (hover to see other rain measurements)
** Current wind speed in m/s (hover to see current wind gust speed)